246P/NEAT (2013)

Japanese version
Home page
Updated on October 12, 2014

---------------------------------------------------------------------

* Profile

Designation 246P/2010 V2
Recovery Date November 2 and 3, 2010
Magnitude 20.4 mag
Recoverer E. Romas (Rostov-na-Donu, Russia), A. Novichonok (Kondopoga, Russia), D. Chestnov (Saransk, Russia), G. Hug (Scranton, KS, U.S.A.)

* Pictures

* Orbital Elements

Epoch 2013 Jan. 28.0 TT = JDT 2456320.5
T 2013 Jan. 28.71056 TT                                 MPC
q   2.8797625            (2000.0)            P               Q
n   0.12191754     Peri.  176.18919     -0.25681352     +0.92800750
a   4.0280229      Node    78.78050     -0.89382640     -0.12184294
e   0.2850680      Incl.   15.97179     -0.36758834     -0.35207439
P   8.08
From 2447 observations 2003 Feb. 1-2013 Aug. 16, mean residual 0".5.

* Finding Charts

* Magnitudes Graph

        m1 = -17.5 + 5 log d + 50   log r(t - 200)  [    ,-460]  (             - 2011 Oct. 26)
        m1 =   0.0 + 5 log d + 25.0 log r(t + 85)   [-460,    ]  (2011 Oct. 26 - 2013 June  7)
        m1 =   5.2 + 5 log d + 15.0 log r           [ 130,    ]  (2013 June  7 -             )

---------------------------------------------------------------------

The orbital elements are published on M.P.E.C. 2013-Q14.
The charts are made with StellaNavigator Ver.8 (AstroArts).
The magnitudes graphs are made with Comet for Windows.

---------------------------------------------------------------------

Copyright(C) Seiichi Yoshida (comet@aerith.net). All rights reserved.